When you browse on this site, cookies collect data to enhance your experience and personalize the content and advertising you see.
Visit our Privacy Policy to learn more. By continuing to use the site, you agree to this use of cookies and data.
  • In Österreich
  • Länderverzeichnis
  • Für 7 Tage
  • Wassertemperatur
  • Wetterkarte
  • News
  • Widgets
  • user-avatar
    Anmelden

    Stündliche Wetter Montana

    Heute, 20 Oktober, Sonntag

    Zeit Temperatur Niederschläge Wind Luftdruck Luftfeuchtigkeit
    00:00 +18°C° 0 mm 1 m/S 737 mmHg 57%
    01:00 +18°C° 0 mm 1 m/S 737 mmHg 58%
    02:00 +18°C° 0 mm 1 m/S 737 mmHg 61%
    03:00 +16°C° 0 mm 1 m/S 737 mmHg 63%
    04:00 +16°C° 0 mm 1 m/S 737 mmHg 64%
    05:00 +16°C° 0 mm 1 m/S 737 mmHg 66%
    06:00 +16°C° 0 mm 1 m/S 737 mmHg 65%
    07:00 +18°C° 0 mm 1 m/S 737 mmHg 64%
    08:00 +16°C° 0 mm 0 m/S 738 mmHg 60%
    09:00 +20°C° 0 mm 1 m/S 738 mmHg 54%
    10:00 +22°C° 0 mm 1 m/S 738 mmHg 49%
    11:00 +24°C° 0 mm 1 m/S 738 mmHg 43%
    12:00 +25°C° 0 mm 1 m/S 738 mmHg 41%
    13:00 +26°C° 0 mm 1 m/S 738 mmHg 39%
    14:00 +26°C° 0 mm 1 m/S 738 mmHg 37%
    15:00 +25°C° 0 mm 1 m/S 737 mmHg 39%
    16:00 +25°C° 0 mm 1 m/S 737 mmHg 42%
    17:00 +24°C° 0 mm 1 m/S 737 mmHg 45%
    18:00 +22°C° 0 mm 1 m/S 737 mmHg 48%
    19:00 +21°C° 0 mm 1 m/S 738 mmHg 52%
    20:00 +20°C° 0 mm 1 m/S 738 mmHg 55%
    21:00 +19°C° 0 mm 1 m/S 738 mmHg 56%
    22:00 +19°C° 0 mm 1 m/S 738 mmHg 57%
    23:00 +19°C° 0 mm 1 m/S 738 mmHg 57%

    Morgen, 21 Oktober, Montag

    Zeit Temperatur Niederschläge Wind Luftdruck Luftfeuchtigkeit
    00:00 +19°C° 0 mm 1 m/S 738 mmHg 59%
    01:00 +18°C° 0 mm 1 m/S 738 mmHg 60%
    02:00 +18°C° 0 mm 1 m/S 738 mmHg 61%
    03:00 +16°C° 0 mm 1 m/S 738 mmHg 62%
    04:00 +16°C° 0 mm 1 m/S 738 mmHg 64%
    05:00 +16°C° 0 mm 1 m/S 738 mmHg 65%
    06:00 +15°C° 0 mm 0 m/S 739 mmHg 63%
    07:00 +16°C° 0 mm 0 m/S 739 mmHg 62%
    08:00 +16°C° 0 mm 0 m/S 739 mmHg 60%
    09:00 +21°C° 0 mm 1 m/S 739 mmHg 54%
    10:00 +23°C° 0 mm 1 m/S 739 mmHg 47%
    11:00 +25°C° 0 mm 1 m/S 739 mmHg 41%
    12:00 +25°C° 0 mm 1 m/S 739 mmHg 39%
    13:00 +26°C° 0 mm 1 m/S 739 mmHg 37%
    14:00 +27°C° 0 mm 1 m/S 739 mmHg 35%
    15:00 +26°C° 0 mm 1 m/S 738 mmHg 38%
    16:00 +25°C° 0 mm 1 m/S 738 mmHg 41%
    17:00 +24°C° 0 mm 1 m/S 738 mmHg 45%
    18:00 +22°C° 0 mm 1 m/S 738 mmHg 48%
    19:00 +21°C° 0 mm 1 m/S 738 mmHg 51%
    20:00 +20°C° 0 mm 1 m/S 739 mmHg 55%
    21:00 +19°C° 0 mm 1 m/S 739 mmHg 55%
    22:00 +19°C° 0 mm 1 m/S 739 mmHg 56%
    23:00 +19°C° 0 mm 1 m/S 739 mmHg 56%

    übermorgen, 22 Oktober, Dienstag

    Zeit Temperatur Niederschläge Wind Luftdruck Luftfeuchtigkeit
    00:00 +18°C° 0 mm 1 m/S 739 mmHg 57%
    01:00 +16°C° 0 mm 0 m/S 739 mmHg 57%
    02:00 +16°C° 0 mm 0 m/S 739 mmHg 58%
    03:00 +15°C° 0 mm 0 m/S 739 mmHg 59%
    04:00 +15°C° 0 mm 0 m/S 739 mmHg 61%
    05:00 +15°C° 0 mm 0 m/S 739 mmHg 62%
    06:00 +15°C° 0 mm 0 m/S 739 mmHg 61%
    07:00 +16°C° 0 mm 0 m/S 739 mmHg 60%
    08:00 +16°C° 0 mm 0 m/S 739 mmHg 59%
    09:00 +20°C° 0 mm 1 m/S 740 mmHg 53%
    10:00 +22°C° 0 mm 1 m/S 740 mmHg 46%
    11:00 +25°C° 0 mm 1 m/S 740 mmHg 40%
    12:00 +25°C° 0 mm 2 m/S 740 mmHg 38%
    13:00 +26°C° 0 mm 2 m/S 740 mmHg 36%
    14:00 +27°C° 0 mm 2 m/S 739 mmHg 34%
    15:00 +26°C° 0 mm 2 m/S 739 mmHg 38%
    16:00 +25°C° 0 mm 2 m/S 739 mmHg 41%
    17:00 +23°C° 0 mm 2 m/S 739 mmHg 45%
    18:00 +22°C° 0 mm 1 m/S 739 mmHg 49%
    19:00 +21°C° 0 mm 1 m/S 739 mmHg 52%
    20:00 +19°C° 0 mm 1 m/S 739 mmHg 56%
    21:00 +19°C° 0 mm 1 m/S 739 mmHg 57%
    22:00 +18°C° 0 mm 1 m/S 740 mmHg 58%
    23:00 +18°C° 0 mm 1 m/S 740 mmHg 59%

    23 Oktober, Mittwoch

    Zeit Temperatur Niederschläge Wind Luftdruck Luftfeuchtigkeit
    00:00 +16°C° 0 mm 1 m/S 740 mmHg 59%
    01:00 +16°C° 0 mm 1 m/S 739 mmHg 59%
    02:00 +16°C° 0 mm 1 m/S 739 mmHg 59%
    03:00 +15°C° 0 mm 1 m/S 739 mmHg 59%
    04:00 +14°C° 0 mm 0 m/S 739 mmHg 60%
    05:00 +13°C° 0 mm 0 m/S 739 mmHg 60%
    06:00 +14°C° 0 mm 0 m/S 739 mmHg 59%
    07:00 +14°C° 0 mm 0 m/S 739 mmHg 58%
    08:00 +15°C° 0 mm 0 m/S 739 mmHg 56%
    09:00 +19°C° 0 mm 1 m/S 739 mmHg 49%
    10:00 +21°C° 0 mm 1 m/S 739 mmHg 43%
    11:00 +24°C° 0 mm 1 m/S 739 mmHg 36%
    12:00 +24°C° 0 mm 1 m/S 739 mmHg 33%
    13:00 +25°C° 0 mm 2 m/S 738 mmHg 30%
    14:00 +26°C° 0 mm 2 m/S 738 mmHg 28%
    15:00 +25°C° 0 mm 2 m/S 738 mmHg 30%
    16:00 +24°C° 0 mm 1 m/S 737 mmHg 33%
    17:00 +23°C° 0 mm 1 m/S 737 mmHg 35%
    18:00 +21°C° 0 mm 1 m/S 737 mmHg 38%
    19:00 +20°C° 0 mm 1 m/S 737 mmHg 41%
    20:00 +18°C° 0 mm 1 m/S 737 mmHg 43%
    21:00 +18°C° 0 mm 1 m/S 737 mmHg 43%
    22:00 +18°C° 0 mm 1 m/S 737 mmHg 43%
    23:00 +16°C° 0 mm 1 m/S 737 mmHg 43%

    24 Oktober, Donnerstag

    Zeit Temperatur Niederschläge Wind Luftdruck Luftfeuchtigkeit
    00:00 +16°C° 0 mm 1 m/S 737 mmHg 44%
    01:00 +15°C° 0 mm 1 m/S 737 mmHg 44%
    02:00 +14°C° 0 mm 0 m/S 737 mmHg 45%
    03:00 +14°C° 0 mm 0 m/S 737 mmHg 46%
    04:00 +14°C° 0 mm 1 m/S 737 mmHg 47%
    05:00 +14°C° 0 mm 1 m/S 737 mmHg 48%
    06:00 +13°C° 0 mm 0 m/S 736 mmHg 48%
    07:00 +14°C° 0 mm 0 m/S 736 mmHg 48%
    08:00 +14°C° 0 mm 0 m/S 736 mmHg 48%
    09:00 +18°C° 0 mm 1 m/S 736 mmHg 43%
    10:00 +20°C° 0 mm 1 m/S 736 mmHg 38%
    11:00 +23°C° 0 mm 1 m/S 736 mmHg 33%
    12:00 +24°C° 0 mm 1 m/S 736 mmHg 31%
    13:00 +25°C° 0 mm 2 m/S 735 mmHg 29%
    14:00 +26°C° 0 mm 2 m/S 735 mmHg 27%
    15:00 +24°C° 0 mm 2 m/S 735 mmHg 30%
    16:00 +23°C° 0 mm 1 m/S 734 mmHg 33%
    17:00 +22°C° 0 mm 1 m/S 734 mmHg 36%
    18:00 +21°C° 0 mm 1 m/S 734 mmHg 39%
    19:00 +19°C° 0 mm 1 m/S 734 mmHg 42%
    20:00 +18°C° 0 mm 1 m/S 734 mmHg 44%
    21:00 +16°C° 0 mm 1 m/S 735 mmHg 45%
    22:00 +16°C° 0 mm 1 m/S 735 mmHg 46%
    23:00 +16°C° 0 mm 1 m/S 735 mmHg 47%

    25 Oktober, Freitag

    Zeit Temperatur Niederschläge Wind Luftdruck Luftfeuchtigkeit
    00:00 +15°C° 0 mm 1 m/S 735 mmHg 48%
    01:00 +14°C° 0 mm 0 m/S 735 mmHg 49%
    02:00 +13°C° 0 mm 0 m/S 735 mmHg 50%
    03:00 +13°C° 0 mm 0 m/S 735 mmHg 52%
    04:00 +12°C° 0 mm 0 m/S 735 mmHg 53%
    05:00 +12°C° 0 mm 0 m/S 735 mmHg 55%
    06:00 +12°C° 0 mm 0 m/S 735 mmHg 54%
    07:00 +13°C° 0 mm 0 m/S 735 mmHg 53%
    08:00 +13°C° 0 mm 0 m/S 735 mmHg 53%
    09:00 +16°C° 0 mm 1 m/S 735 mmHg 47%
    10:00 +20°C° 0 mm 1 m/S 735 mmHg 42%
    11:00 +22°C° 0 mm 1 m/S 736 mmHg 37%
    12:00 +23°C° 0 mm 1 m/S 735 mmHg 35%
    13:00 +23°C° 0 mm 1 m/S 735 mmHg 34%
    14:00 +24°C° 0 mm 1 m/S 735 mmHg 32%
    15:00 +23°C° 0 mm 1 m/S 735 mmHg 35%
    16:00 +22°C° 0 mm 1 m/S 735 mmHg 39%
    17:00 +21°C° 0 mm 1 m/S 734 mmHg 42%
    18:00 +19°C° 0 mm 1 m/S 735 mmHg 45%
    19:00 +18°C° 0 mm 1 m/S 735 mmHg 48%
    20:00 +16°C° 0 mm 1 m/S 735 mmHg 51%
    21:00 +15°C° 0 mm 1 m/S 736 mmHg 52%
    22:00 +15°C° 0 mm 1 m/S 736 mmHg 52%
    23:00 +15°C° 0 mm 1 m/S 736 mmHg 53%
    Mehr zeigen